N5RML-1 Weather Reports


time (UTC)temp
C
wind
direction
speed
KPH
gust
KPH
rain 1hr
cm
rain 24hr
cm
rain mn
cm
humidity
%
barometer
mb
20260506050536 23 156 9.7 16.1 0.00 0.00 0.00 84 1013.6
20260506044555 23 139 9.7 12.9 0.00 0.00 0.00 84 1013.8
20260506043523 23 158 9.7 14.5 0.00 0.00 0.00 84 1013.9
20260506042531 23 159 11.3 19.3 0.00 0.00 0.00 84 1013.9
20260506041521 23 146 9.7 16.1 0.00 0.00 0.00 84 1013.9
20260506040528 23 143 8.0 11.3 0.00 0.00 0.00 84 1013.9
20260506035536 23 145 8.0 12.9 0.00 0.00 0.00 83 1014.0
20260506034526 23 169 9.7 16.1 0.00 0.00 0.00 83 1014.0
20260506033534 23 144 9.7 14.5 0.00 0.00 0.00 82 1013.9
20260506032522 23 157 8.0 14.5 0.00 0.00 0.00 82 1014.0
20260506031530 23 164 11.3 16.1 0.00 0.00 0.00 81 1014.0
20260506030519 23 153 11.3 17.7 0.00 0.00 0.00 81 1014.0
20260506025609 23 137 8.0 12.9 0.00 0.00 0.00 81 1013.9
20260506024535 23 139 9.7 12.9 0.00 0.00 0.00 81 1013.9
20260506023524 24 138 9.7 12.9 0.00 0.00 0.00 80 1013.8
20260506022532 24 150 8.0 11.3 0.00 0.00 0.00 79 1013.8
20260506021521 24 162 8.0 11.3 0.00 0.00 0.00 79 1013.6
20260506020529 24 163 6.4 9.7 0.00 0.00 0.00 78 1013.5
20260506015538 24 165 6.4 11.3 0.00 0.00 0.00 76 1013.5
20260506014527 25 148 8.0 11.3 0.00 0.00 0.00 76 1013.3
20260506013535 25 139 6.4 11.3 0.00 0.00 0.00 76 1013.3
20260506012545 25 180 6.4 11.3 0.00 0.00 0.00 76 1013.3
20260506011553 25 139 8.0 11.3 0.00 0.00 0.00 76 1013.3
20260506010541 25 150 8.0 11.3 0.00 0.00 0.00 75 1013.3
20260506005529 25 140 9.7 17.7 0.00 0.00 0.00 75 1013.5
20260506004537 25 145 8.0 12.9 0.00 0.00 0.00 74 1013.3
20260506003527 25 167 9.7 14.5 0.00 0.00 0.00 73 1013.3
20260506002535 25 150 9.7 14.5 0.00 0.00 0.00 72 1013.4
20260506001525 25 184 9.7 12.9 0.00 0.00 0.00 71 1013.3
20260506000532 26 134 8.0 11.3 0.00 0.00 0.00 70 1013.2
20260505235521 26 160 9.7 16.1 0.00 0.00 0.00 69 1013.2
20260505234529 26 171 9.7 17.7 0.00 0.00 0.00 69 1013.3
20260505233537 26 149 9.7 14.5 0.00 0.00 0.00 69 1013.3
20260505232526 26 159 9.7 14.5 0.00 0.00 0.00 69 1013.3
20260505231536 26 144 9.7 17.7 0.00 0.00 0.00 68 1013.3
20260505230523 26 158 11.3 17.7 0.00 0.00 0.00 67 1013.4
20260505225531 27 166 11.3 16.1 0.00 0.00 0.00 67 1013.3
20260505224521 27 157 11.3 20.9 0.00 0.00 0.00 66 1013.3
20260505223529 27 150 11.3 17.7 0.00 0.00 0.00 66 1013.3
20260505222538 27 178 12.9 17.7 0.00 0.00 0.00 65 1013.1
20260505221526 27 137 12.9 19.3 0.00 0.00 0.00 66 1013.1
20260505220537 27 166 12.9 19.3 0.00 0.00 0.00 66 1013.2
20260505215523 28 181 14.5 19.3 0.00 0.00 0.00 65 1013.2
20260505214631 28 153 12.9 19.3 0.00 0.00 0.00 65 1013.2
20260505213521 28 166 14.5 24.1 0.00 0.00 0.00 64 1013.3
20260505212528 28 167 9.7 19.3 0.00 0.00 0.00 64 1013.3
20260505211537 28 161 11.3 19.3 0.00 0.00 0.00 65 1013.5
20260505210526 28 153 12.9 17.7 0.00 0.00 0.00 64 1013.6
20260505205533 28 160 11.3 19.3 0.00 0.00 0.00 64 1013.6
20260505204522 28 151 8.0 17.7 0.00 0.00 0.00 63 1013.5
20260505203530 28 165 11.3 16.1 0.00 0.00 0.00 62 1013.5
20260505202520 29 190 9.7 14.5 0.00 0.00 0.00 60 1013.4
20260505201528 29 153 9.7 16.1 0.00 0.00 0.00 60 1013.5
20260505200536 29 176 8.0 12.9 0.00 0.00 0.00 58 1013.5
20260505195525 29 182 8.0 14.5 0.00 0.00 0.00 57 1013.6
20260505194552 29 190 11.3 17.7 0.00 0.00 0.00 56 1013.6
20260505193545 28 164 9.7 19.3 0.00 0.00 0.00 59 1013.6
20260505192530 29 159 8.0 11.3 0.00 0.00 0.00 57 1013.8
20260505191537 29 170 8.0 14.5 0.00 0.00 0.00 58 1014.0
20260505190527 29 157 9.7 16.1 0.00 0.00 0.00 58 1014.2
20260505185535 28 158 11.3 17.7 0.00 0.00 0.00 59 1014.3
20260505184524 29 178 9.7 12.9 0.00 0.00 0.00 57 1014.4
20260505183533 29 196 9.7 14.5 0.00 0.00 0.00 57 1014.6
20260505182541 28 167 12.9 17.7 0.00 0.00 0.00 58 1014.6
20260505181529 28 141 9.7 12.9 0.00 0.00 0.00 59 1014.7
20260505180537 28 161 11.3 17.7 0.00 0.00 0.00 59 1014.7
20260505175526 28 161 9.7 14.5 0.00 0.00 0.00 59 1014.7
20260505174537 28 170 9.7 14.5 0.00 0.00 0.00 60 1014.7
20260505173523 27 155 9.7 16.1 0.00 0.00 0.00 61 1014.8
20260505172551 28 143 9.7 12.9 0.00 0.00 0.00 60 1014.8
20260505171520 28 156 8.0 14.5 0.00 0.00 0.00 61 1014.9
20260505170528 28 156 9.7 14.5 0.00 0.00 0.00 60 1014.8
20260505165538 27 165 9.7 16.1 0.00 0.00 0.00 61 1014.8
20260505164526 27 183 8.0 12.9 0.00 0.00 0.00 61 1014.7
20260505163533 27 168 11.3 19.3 0.00 0.00 0.00 60 1014.9
20260505162522 27 189 8.0 14.5 0.00 0.00 0.00 60 1014.8
20260505161530 27 170 9.7 16.1 0.00 0.00 0.00 61 1014.8
20260505160519 27 191 9.7 14.5 0.00 0.00 0.00 61 1014.8
20260505152533 26 188 9.7 14.5 0.00 0.00 0.00 62 1015.2
20260505151522 26 165 11.3 16.1 0.00 0.00 0.00 63 1014.9
20260505150530 26 173 8.0 11.3 0.00 0.00 0.00 64 1015.1
20260505140522 25 209 9.7 17.7 0.00 0.00 0.00 68 1015.1
20260505124530 21 157 6.4 11.3 0.00 0.00 0.00 75 1014.6
20260505123520 21 152 8.0 14.5 0.00 0.00 0.00 77 1014.3
20260505122527 20 151 6.4 8.0 0.00 0.00 0.00 79 1014.2
20260505121538 20 162 6.4 8.0 0.00 0.00 0.00 81 1014.1
20260505120524 19 151 6.4 8.0 0.00 0.00 0.00 84 1014.1
20260505115533 18 157 3.2 9.7 0.00 0.00 0.00 88 1014.1
20260505114523 16 0.0 0.0 0.00 0.00 0.00 92 1014.3
20260505113530 16 0.0 0.0 0.00 0.00 0.00 91 1014.2
20260505112520 15 0.0 0.0 0.00 0.00 0.00 91 1014.1
20260505111528 15 0.0 0.0 0.00 0.00 0.00 91 1014.1
20260505110536 15 0.0 0.0 0.00 0.00 0.00 91 1014.2
20260505101520 16 0.0 0.0 0.00 0.00 0.00 90 1014.4
20260505100528 16 0.0 0.0 0.00 0.00 0.00 90 1014.3
20260505095536 16 0.0 0.0 0.00 0.00 0.00 90 1014.3
20260505094525 16 0.0 0.0 0.00 0.00 0.00 90 1014.3
20260505093533 16 0.0 0.0 0.00 0.00 0.00 90 1014.3
20260505092523 16 0.0 0.0 0.00 0.00 0.00 89 1014.1
20260505091531 16 0.0 0.0 0.00 0.00 0.00 89 1014.1
20260505090522 16 0.0 0.0 0.00 0.00 0.00 89 1014.2
20260505085549 16 0.0 0.0 0.00 0.00 0.00 89 1014.2
20260505084538 16 0.0 0.0 0.00 0.00 0.00 88 1014.1
20260505083528 16 0.0 0.0 0.00 0.00 0.00 89 1014.2
20260505082554 16 0.0 0.0 0.00 0.00 0.00 89 1014.2
20260505081525 16 0.0 0.0 0.00 0.00 0.00 89 1014.2
20260505080531 16 0.0 0.0 0.00 0.00 0.00 89 1014.3
20260505075522 15 0.0 0.0 0.00 0.00 0.00 88 1014.3
20260505074529 15 0.0 0.0 0.00 0.00 0.00 88 1014.3
20260505073538 15 0.0 0.0 0.00 0.00 0.00 87 1014.5
20260505072546 16 0.0 0.0 0.00 0.00 0.00 87 1014.5
20260505071535 16 0.0 0.0 0.00 0.00 0.00 87 1014.7
20260505070752 -17 0.0 0.0 0.00 0.00 0.00 1014.6
20260505070524 16 0.0 0.0 0.00 0.00 0.00 86 1014.7
20260505065533 16 0.0 0.0 0.00 0.00 0.00 86 1015.0
20260505064523 16 0.0 0.0 0.00 0.00 0.00 84 1015.0
20260505063534 16 0.0 0.0 0.00 0.00 0.00 84 1015.3
20260505062538 16 0.0 0.0 0.00 0.00 0.00 83 1015.3
20260505061607 16 0.0 0.0 0.00 0.00 0.00 83 1015.3
20260505060556 16 0.0 0.0 0.00 0.00 0.00 81 1015.2